Location: Bärenbad
(47.1167°N, 11.2667°E)
Time: 12:58:23
(UTC+00:00)

Daily predictions for brighter satellites

Satellite Brightness Start Highest point End
(mag) Time Altitude Azimuth Time Altitude Azimuth Time Altitude Azimuth
MetOp-B 4.3 19:43:33 10° SSE 19:48:50 65° ENE 19:54:09 10° N
Cosmos 1110 Rocket 4.3 19:45:21 10° S 19:50:22 48° ESE 19:55:29 10° NNE
X-37B 1.0 19:48:43 10° W 19:51:21 37° SSW 19:53:59 10° SE
Cosmos 2154 Rocket 4.5 19:47:17 10° N 19:53:13 45° ENE 19:59:07 10° SE
SL-8 R/B 4.1 19:51:47 10° WNW 19:56:28 53° SSW 20:01:09 10° SE
Cosmos 2228 3.4 19:54:03 10° N 19:58:08 46° ENE 20:02:13 10° SSE
Cosmos 968 Rocket 4.5 19:56:47 10° N 20:01:33 35° ENE 20:06:19 10° SE
Cosmos 1697 Rocket 2.8 19:56:43 10° NNW 20:02:21 73° ENE 20:07:57 10° SSE
Cosmos 1980 Rocket 3.0 19:57:28 10° NNW 20:02:52 41° NE 20:08:12 10° SE
SL-16 R/B 4.3 20:01:08 10° N 20:04:45 17° NE 20:08:21 10° E
ATLAS 5 CENTAUR R/B 3.0 20:09:31 11° SE 20:10:50 13° ESE 20:12:34 10° E
Cosmos 2369 4.2 20:05:37 10° NNW 20:11:14 52° ENE 20:16:35 11° SE
Cosmos 2344 4.4 20:07:47 10° NW 20:16:33 75° NE 20:28:17 11° SE
Cosmos 1408 4.3 20:14:47 11° ESE 20:16:35 16° E 20:18:46 10° NE
Resurs 01 Rocket 2.8 20:12:35 10° S 20:16:47 41° W 20:21:03 10° NNW
Meteor 2-1 Rocket 4.4 20:11:37 10° N 20:17:04 58° ENE 20:22:18 11° SSE
COSMOS 2406 3.4 20:14:52 10° S 20:20:27 54° ESE 20:26:03 10° NE
Cosmos 2184 Rocket 4.1 20:17:58 10° N 20:24:11 84° W 20:30:24 10° S
H-2A R/B 3.6 20:21:44 10° N 20:25:55 41° WNW 20:30:08 10° SW
Cosmos 1833 Rocket 2.8 20:20:27 10° SSW 20:26:04 86° WNW 20:31:44 10° NNE
Cosmos 1867 3.8 20:24:32 10° NNW 20:29:59 64° NE 20:34:38 14° SE
Cosmos 1536 Rocket 4.3 20:27:28 10° SSW 20:31:43 53° WNW 20:36:00 10° N
Cosmos 1703 3.7 20:29:01 10° SSW 20:32:49 61° W 20:36:40 10° N
CARTOSAT-1 4.2 20:29:47 10° S 20:34:01 54° W 20:38:16 10° NNW
Cosmos 1825 4.2 20:33:23 12° ESE 20:34:43 14° E 20:36:38 10° NE
USA 245 3.4 20:32:00 10° S 20:35:52 61° WSW 20:39:00 10° NNW
Cosmos 1606 Rocket 3.5 20:31:50 10° N 20:36:11 76° E 20:39:50 14° SSE
Ariane Rocket 4.1 20:33:17 10° S 20:38:07 42° W 20:42:57 10° NNW
Cosmos 2322 Rocket 4.1 20:34:56 10° N 20:39:08 21° NE 20:43:19 10° E
CZ-4B R/B 3.6 20:43:16 10° NNW 20:45:35 22° WNW 20:47:53 10° WSW
USA 234 4.5 20:40:11 10° ENE 20:46:12 40° N 20:52:14 10° NW
GP-B 4.2 20:42:42 10° NNE 20:46:36 29° E 20:49:01 18° SE
ARIANE 5 R/B 3.0 20:44:14 18° SE 20:47:24 53° ENE 20:51:42 10° N
Terra 1.8 20:44:04 16° SSE 20:47:48 74° ENE 20:52:34 10° N
SPOT 3 Rocket 4.2 20:44:36 10° S 20:49:40 52° W 20:54:46 10° NNW
SPOT 5 2.7 20:46:56 14° S 20:50:36 72° WSW 20:54:56 10° NNW
RESURS DK-1 4.4 20:50:02 10° WNW 20:53:06 20° WSW 20:56:10 10° SSW
Cosmos 2278 4.0 20:47:33 10° NNW 20:53:13 58° ENE 20:57:25 18° SE
USA 276 2.5 20:51:23 10° WNW 20:54:23 58° NNE 20:56:54 14° E
Cosmos 2341 Rocket 4.2 20:48:23 10° N 20:54:39 61° ENE 20:59:17 18° SSE
FALCON 9 DEB 3.3 20:52:32 10° WNW 20:55:47 65° NNE 20:58:00 19° ESE
Cosmos 1726 Rocket 3.5 20:53:45 10° N 20:58:06 83° W 21:01:15 18° S
Meteor 1-11 4.2 20:58:41 15° S 21:03:22 66° E 21:08:54 10° NNE
Cosmos 2082 Rocket 2.2 20:58:31 10° SSW 21:04:14 82° ESE 21:09:57 10° NNE
Okean 1-7 Rocket 4.4 21:03:32 22° SE 21:05:41 34° E 21:09:46 10° NNE
Cosmos 1633 4.5 21:05:14 14° E 21:05:43 14° E 21:07:37 10° NE
Cosmos 1486 Rocket 4.4 21:01:16 10° NNW 21:06:23 53° ENE 21:09:45 21° SE
Helios 1A Rocket 3.6 21:04:55 16° S 21:08:00 49° W 21:12:01 10° NNW
Spot 2 Rocket 4.1 21:04:02 13° S 21:08:23 52° W 21:13:25 10° NNW
ASTEX 1 3.8 21:03:54 10° NNE 21:08:46 49° E 21:11:39 23° SSE
Cosmos 1328 4.4 21:05:11 10° SSW 21:09:07 57° WNW 21:13:04 10° N
TIMED 4.4 21:07:04 13° SSW 21:10:55 76° ESE 21:15:18 10° NNE
Cosmos 2360 Rocket 4.0 21:09:18 10° N 21:13:48 23° NE 21:18:18 10° E
Cosmos 1932 4.4 21:11:54 10° SSW 21:18:04 73° ESE 21:24:24 10° NE
Cosmos 2181 Rocket 4.1 21:17:08 20° SSE 21:21:22 62° E 21:27:32 10° NNE
ERS-1 Rocket 3.9 21:22:06 14° SSW 21:26:02 41° W 21:30:50 10° NNW
X-37B 3.0 21:25:16 10° SW 21:25:27 10° SW 21:25:27 10° SW
Cosmos 1892 2.7 21:26:26 24° SSW 21:28:35 80° W 21:32:23 10° N
Cosmos 1602 Rocket 4.4 21:28:28 27° SE 21:29:54 34° E 21:33:49 10° NNE
Cosmos 1503 Rocket 4.1 21:39:35 10° NNW 21:44:52 67° ENE 21:47:32 29° SE
ALOS 2 4.0 21:44:13 19° ESE 21:46:15 27° ENE 21:49:58 10° N
Cosmos 1980 Rocket 3.2 21:41:39 10° NW 21:46:48 36° WSW 21:50:07 19° SSW
Cosmos 2219 Rocket 4.2 21:45:18 10° N 21:49:31 21° NE 21:53:44 10° E
SL-16 R/B 2.3 21:44:13 10° NNW 21:49:55 72° ENE 21:52:57 28° SE
Cosmos 2058 Rocket 4.1 21:46:41 10° NNW 21:50:50 40° W 21:53:20 21° SSW
Cosmos 1408 4.0 21:48:44 16° SW 21:50:59 32° WNW 21:54:08 10° N
Cosmos 1626 Rocket 3.4 21:50:06 32° S 21:52:03 88° E 21:56:27 10° N
USA 267 3.4 21:47:39 10° ENE 21:53:59 50° SE 21:59:31 14° SSW
SL-8 Rocket 4.3 21:47:58 10° NNW 21:54:05 61° W 21:58:01 23° SSW
ATLAS 5 CENTAUR R/B 1.6 21:50:53 10° SW 21:54:35 66° NW 21:58:47 10° NE
Cosmos 2058 4.3 21:53:50 23° ESE 21:54:37 25° E 21:58:03 10° NE
SJ 16-02 1.6 21:57:32 10° NNW 22:01:56 59° ENE 22:03:35 35° SE
SL-4 R/B 2.5 22:04:44 34° E 22:04:44 34° E 22:07:09 10° ENE
Cosmos 1825 Rocket 4.4 22:04:05 31° ESE 22:05:02 34° E 22:08:59 10° NNE
Meteor 2-20 4.5 22:03:59 30° SSE 22:07:03 67° E 22:13:06 10° NNE
Cosmos 1825 2.9 22:08:00 27° SW 22:09:37 46° WNW 22:13:16 10° N
Cosmos 2221 4.3 22:10:18 10° NNE 22:13:45 22° ENE 22:15:26 18° ESE
Cosmos 1869 4.3 22:13:29 10° NNW 22:17:08 37° W 22:18:25 29° SW
Cosmos 2322 Rocket 2.1 22:18:15 10° NNW 22:23:58 88° WSW 22:26:28 35° SSE
Terra 4.2 22:23:32 10° WSW 22:26:06 14° W 22:28:40 10° NW
USA 234 3.5 22:22:11 10° ESE 22:28:41 70° NNE 22:35:13 10° NW
USA 276 3.8 22:27:14 10° W 22:28:42 23° W 22:28:42 23° W
Cosmos 1934 Rocket 4.2 22:25:51 10° N 22:31:52 58° ENE 22:34:46 31° SE
Meteor 2-20 Rocket 4.4 22:33:21 34° S 22:36:12 80° E 22:42:19 10° NNE
BREEZE-M DEB (TANK) 4.0 22:34:07 10° WNW 22:37:36 88° NNE 22:52:16 10° ESE
Cosmos 1633 3.5 22:39:00 31° WSW 22:39:52 37° WNW 22:43:07 10° N
Cosmos 1758 Rocket 4.1 22:42:25 34° SW 22:44:02 53° WNW 22:48:22 10° N
Cosmos 1238 4.3 22:44:13 67° WSW 22:44:25 70° W 22:48:01 10° N
Cosmos 2333 Rocket 2.7 22:39:13 10° NNW 22:44:55 58° ENE 22:48:05 26° SE
COSMOS 2487 4.0 22:52:54 21° ENE 22:52:54 21° ENE 22:54:36 10° NE
Cosmos 1606 3.2 22:50:02 10° NNW 22:53:46 47° W 22:54:21 43° WSW
Cosmos-2242 3.9 22:50:10 10° NNW 22:54:06 38° W 22:55:10 32° SW
ADEOS Rocket 3.6 22:53:13 32° S 22:57:06 76° WSW 23:04:56 10° NNW
Cosmos 2360 Rocket 2.2 22:52:44 10° NNW 22:58:25 74° WSW 23:00:31 40° S
ISS -2.1 23:00:48 24° E 23:00:48 24° E 23:02:22 10° ENE
Cosmos 1340 Rocket 2.6 22:58:42 63° S 22:59:18 89° ESE 23:03:18 10° NNE
Gbstr 26 Del rocket 3.0 22:59:00 29° WSW 23:01:13 85° SSE 23:06:22 10° ENE
Meteor 2-3 Rocket 4.4 23:04:49 31° SE 23:06:47 43° E 23:12:01 10° NNE
Cosmos 2333 4.2 23:02:15 10° NNW 23:08:04 85° ENE 23:10:39 35° SSE
Cosmos 1076 Rocket 4.3 23:09:44 34° ESE 23:10:36 38° E 23:14:40 10° NNE
BREEZE-M DEB (TANK) 2.8 23:12:24 54° ESE 23:12:24 54° ESE 23:17:05 10° ENE
SL-27 R/B 2.8 23:13:18 49° E 23:13:18 49° E 23:16:08 10° NNE
NOSS 3-2 (A) 4.0 23:13:40 31° SE 23:14:48 34° ESE 23:20:15 10° NE
Meteor 2-11 Rocket 4.4 23:08:42 10° N 23:14:51 81° W 23:17:23 38° S
Cosmos 44 3.1 23:14:09 41° SW 23:15:43 83° NW 23:20:12 10° NE
Cosmos 972 Rocket 4.2 23:11:27 10° NNW 23:16:41 68° WSW 23:18:42 40° S
Cosmos 1833 4.1 23:14:26 35° SSW 23:16:53 86° WNW 23:22:31 10° NNE
Cosmos 1782 3.6 23:17:36 10° N 23:21:24 42° ENE 23:22:20 36° ESE
ALOS 2 3.6 23:21:37 31° WSW 23:22:27 34° W 23:26:29 10° NNW
ERS-2 2.0 23:19:01 10° NNE 23:22:36 77° WNW 23:22:56 69° SW
CENTAUR R/B 3.1 23:22:31 32° SSE 23:24:09 38° ESE 23:30:23 10° NE
Cosmos 2237 Rocket 4.0 23:19:50 10° N 23:24:38 27° NE 23:29:23 10° ESE
Cosmos 1605 Rocket 4.0 23:19:07 10° N 23:25:34 89° E 23:28:27 36° S
Cosmos 2297 Rocket 4.0 23:29:19 15° ESE 23:31:11 17° E 23:34:42 10° ENE
COSMOS 2428 3.0 23:25:38 10° NNW 23:31:20 66° ENE 23:34:37 26° SE
Cosmos 2058 4.3 23:29:58 25° WSW 23:31:21 31° WNW 23:35:06 10° N
Cosmos 2151 3.5 23:31:03 42° SE 23:31:57 49° E 23:36:06 10° NNE
SL-16 R/B 3.8 23:29:29 10° NW 23:33:23 19° W 23:34:48 18° WSW
Cosmos 2219 Rocket 2.1 23:28:31 10° NNW 23:34:14 86° WSW 23:36:41 36° SSE
Cosmos 1953 Rocket 4.3 23:33:03 33° WSW 23:34:25 43° WNW 23:38:39 10° N
USA 267 3.6 23:30:40 10° NE 23:37:08 64° NNW 23:43:35 10° WSW
SJ 16-02 3.3 23:37:20 10° WNW 23:39:59 16° W 23:40:31 15° WSW
ATLAS 5 CENTAUR R/B 4.3 23:37:29 10° WNW 23:40:03 16° NNW 23:42:52 10° NNE
SL-4 R/B 2.5 23:40:05 13° W 23:43:07 50° NNW 23:46:47 10° ENE
Cosmos 2322 3.6 23:37:41 10° NNW 23:43:23 80° WSW 23:45:45 37° SSE
Cosmos 1898 Rocket 3.5 23:39:29 10° NNW 23:44:42 74° ENE 23:47:02 33° SE
Cosmos 1937 Rocket 3.9 23:44:39 10° NNW 23:49:52 61° ENE 23:52:46 26° SE
Cosmos 2221 3.3 23:47:21 10° NNW 23:51:25 38° W 23:52:14 35° WSW
COSMOS 2455 3.8 23:46:20 10° NNW 23:52:08 46° NE 23:57:53 10° ESE
PSLV R/B 4.1 23:49:18 10° N 23:53:57 57° WNW 23:55:36 36° SW
Cosmos 1184 Rocket 4.2 23:54:38 10° NNE 23:57:18 27° ENE 23:57:49 26° E
